[[{"header":{"parameterUnit":"m.s-1","parameterCategory":1,"la1":30.2991,"la2":30.254,"lo1":-89.0895,"lo2":-89.0444,"dy":0.0017,"dx":0.0017,"nx":28,"ny":28,"refTime":"2023-10-11T21:00:00:Z","depth":0,"parameterNumber":2,"parameterNumberName":"U-component_of_WINDS"},"data":[0,0,0,0,0,0,0,0,0,0,0,0,0,0,0,0,0,0,0,0,0,0,0,0,0,0,0,0,0,0,0,0,0,0,0,0,0,0,0,0,0,0,0,0,0,0,0,0,0,0,0,0,0,0,0,0,0,0,-1.6141,-1.6141,0,-1.6164,-1.6164,-1.6164,-1.6155,-1.6154,-1.6154,-1.6153,-1.6176,-1.6177,-1.6178,0,0,0,0,0,0,0,0,0,0,0,0,0,-1.6087,-1.6088,-1.6141,-1.6141,-1.6141,-1.6164,-1.6164,-1.6164,-1.6155,-1.6154,-1.6153,-1.6153,-1.6175,-1.6177,-1.6178,0,0,0,0,0,0,0,0,0,0,0,0,0,-1.611,-1.6089,-1.6141,-1.6139,-1.6139,-1.6164,-1.6164,-1.6164,-1.6155,-1.6154,-1.6153,-1.6153,-1.6175,-1.6177,-1.6178,-1.6205,0,0,-1.6183,-1.6184,0,0,0,0,0,0,0,0,-1.6109,-1.6112,-1.6139,-1.6139,-1.614,-1.6155,-1.6153,-1.6178,-1.6155,-1.6149,-1.6153,-1.6152,-1.617,-1.6172,-1.6178,-1.6206,-1.6207,-1.6183,-1.6184,-1.6185,-1.6186,0,0,0,0,0,0,0,-1.6107,-1.6111,-1.615,-1.614,-1.614,-1.6137,-1.6139,-1.6158,-1.6164,-1.6149,-1.6149,-1.6152,-1.617,-1.6176,-1.6178,-1.6207,-1.6183,-1.6185,-1.6186,-1.6187,-1.6258,-1.6258,0,0,0,0,0,0,-1.6106,-1.611,-1.6149,-1.615,-1.6122,-1.6139,-1.6141,-1.6151,-1.6163,-1.6164,-1.6152,-1.6151,-1.6174,-1.6176,-1.6179,-1.6211,-1.6185,-1.6187,-1.6188,-1.6257,-1.6258,-1.6259,0,0,0,0,0,0,-1.6105,-1.611,-1.6148,-1.613,-1.6135,-1.614,-1.6152,-1.6152,-1.6159,-1.6166,-1.6166,-1.6158,-1.6173,-1.6177,-1.6198,-1.6211,-1.6187,-1.6189,-1.6256,-1.6257,-1.6258,-1.6274,0,0,0,0,0,0,-1.6103,-1.6109,-1.612,-1.613,-1.6136,-1.6168,-1.6152,-1.6153,-1.6162,-1.616,-1.6171,-1.6172,-1.6173,-1.6196,-1.62,-1.6213,-1.619,-1.6254,-1.6256,-1.6258,-1.6273,-1.6276,-1.6279,0,0,0,0,0,-1.6102,-1.6123,-1.612,-1.6125,-1.6149,-1.6168,-1.6171,-1.6172,-1.6163,-1.6173,-1.6177,-1.6172,-1.6209,-1.6198,-1.6203,-1.6217,-1.6254,-1.6256,-1.6258,-1.6271,-1.6275,-1.6279,0,0,0,0,0,0,-1.6114,-1.6125,-1.6122,-1.6148,-1.6157,-1.6167,-1.618,-1.6176,-1.6188,-1.6187,-1.6186,-1.6189,-1.6211,-1.6216,-1.6204,-1.6243,-1.623,-1.6233,-1.6239,-1.6243,-1.6246,-1.6244,-1.6192,0,0,0,0,0,-1.612,-1.6135,-1.6143,-1.6165,-1.617,-1.6174,-1.6183,-1.6182,-1.6192,-1.6196,-1.6202,-1.6211,-1.6225,-1.6234,-1.6247,-1.6273,-1.6275,-1.6285,-1.6288,-1.629,-1.6293,-1.6307,-1.6311,-1.6265,-1.6265,-1.6265,0,0,-1.6132,-1.614,-1.6149,-1.6168,-1.6175,-1.6191,-1.6178,-1.6195,-1.6206,-1.6198,-1.6219,-1.6224,-1.6234,-1.6258,-1.6269,-1.6263,-1.6306,-1.6293,-1.6295,-1.6296,-1.6309,-1.6313,-1.6317,-1.6267,-1.6266,-1.6266,0,0,-1.6162,-1.6169,-1.6188,-1.6196,-1.6207,-1.6209,-1.6214,-1.6224,-1.6227,-1.6248,-1.6243,-1.6256,-1.6279,-1.6287,-1.6294,-1.6326,-1.6321,-1.633,-1.6346,-1.636,-1.6363,-1.6366,-1.6377,-1.6381,-1.6332,-1.6333,-1.6333,0,-1.6175,-1.6198,-1.6198,-1.6216,-1.6224,-1.6218,-1.6237,-1.6244,-1.6259,-1.6264,-1.6257,-1.6287,-1.6293,-1.6319,-1.6326,-1.6332,-1.6337,-1.6329,-1.6363,-1.6366,-1.6369,-1.6379,-1.6384,-1.6334,-1.6333,-1.6333,-1.6333,0,-1.6214,-1.623,-1.6244,-1.6259,-1.6269,-1.6286,-1.6289,-1.6298,-1.6297,-1.63,-1.6321,-1.6329,-1.6343,-1.6349,-1.6347,-1.6374,-1.637,-1.6363,-1.635,-1.6374,-1.6384,-1.6388,-1.6335,-1.6335,-1.6334,-1.6334,0,0,-1.6253,-1.6267,-1.6272,-1.6279,-1.629,-1.6302,-1.632,-1.6334,-1.6342,-1.6352,-1.6366,-1.6386,-1.638,-1.6388,-1.6387,-1.6399,-1.6423,-1.639,-1.639,-1.6396,-1.6452,-1.6457,-1.6462,-1.642,-1.6421,-1.6421,-1.6451,0,-1.6283,-1.6314,-1.6315,-1.6343,-1.6357,-1.6351,-1.6366,-1.6375,-1.6378,-1.639,-1.6393,-1.6408,-1.6398,-1.6403,-1.6414,-1.6418,-1.6434,-1.6416,-1.6433,-1.6433,-1.643,-1.6467,-1.6473,-1.65,-1.6455,-1.6456,-1.6456,0,-1.6324,-1.6335,-1.6365,-1.6374,-1.638,-1.6394,-1.6406,-1.6418,-1.6427,-1.6429,-1.6437,-1.6435,-1.6452,-1.6438,-1.6461,-1.6449,-1.6455,-1.6458,-1.6459,-1.6461,-1.6446,-1.6469,-1.6509,-1.6513,-1.6462,-1.6462,-1.6461,0,-1.6349,-1.6372,-1.6392,-1.6398,-1.6409,-1.6419,-1.6424,-1.6432,-1.644,-1.6451,-1.6456,-1.6469,-1.6476,-1.6485,-1.6486,-1.6476,-1.6509,-1.6496,-1.651,-1.651,-1.6518,-1.6517,-1.6559,-1.6522,-1.6522,-1.6522,-1.6522,0,-1.6383,-1.6401,-1.6403,-1.6416,-1.6436,-1.6436,-1.6456,-1.646,-1.6467,-1.648,-1.6476,-1.6488,-1.6488,-1.65,-1.6501,-1.6519,-1.6523,-1.6524,-1.6524,-1.6524,-1.6524,-1.6529,-1.6527,-1.6523,-1.6523,-1.6523,-1.6523,0,-1.6414,-1.6417,-1.6439,-1.6447,-1.645,-1.6464,-1.6471,-1.6483,-1.6486,-1.6502,-1.6506,-1.6509,-1.6524,-1.6525,-1.6541,-1.6542,-1.6564,-1.6562,-1.6561,-1.6561,-1.6575,-1.6573,-1.6621,-1.6627,-1.6587,-1.6587,-1.6587,0,-1.6436,-1.645,-1.646,-1.6468,-1.6474,-1.6488,-1.6496,-1.6496,-1.6505,-1.6516,-1.6526,-1.654,-1.6551,-1.6573,-1.6577,-1.659,-1.6588,-1.6603,-1.6589,-1.6589,-1.6587,-1.6587,-1.6588,-1.6606,-1.6607,-1.6607,-1.6607,0,-1.6474,-1.6474,-1.6487,-1.6499,-1.651,-1.652,-1.6529,-1.6536,-1.6537,-1.6547,-1.6561,-1.657,-1.6586,-1.66,-1.6612,-1.6616,-1.6612,-1.6612,-1.6616,-1.6616,-1.6615,-1.6615,-1.6568,-1.6611,-1.661,-1.661,-1.661,-1.661,-1.6501,-1.6513,-1.6522,-1.6536,-1.6542,-1.6551,-1.6562,-1.6566,-1.6578,-1.6592,-1.6591,-1.6607,-1.6615,-1.663,-1.6636,-1.6648,-1.6642,-1.6648,-1.665,-1.6651,-1.6652,-1.6613,-1.665,-1.665,-1.665,-1.665,-1.665,0,-1.6539,-1.6544,-1.6557,-1.657,-1.658,-1.6575,-1.6585,-1.6594,-1.6608,-1.6616,-1.6627,-1.6643,-1.6656,-1.6661,-1.6673,-1.6682,-1.668,-1.6685,-1.6684,-1.6685,-1.6657,-1.6652,-1.6686,-1.6686,-1.6686,-1.6686,-1.6686,-1.6686,-1.6559,-1.6579,-1.6581,-1.6603,-1.6608,-1.6624,-1.663,-1.6638,-1.6644,-1.6662,-1.6673,-1.6676,-1.6682,-1.6695,-1.6706,-1.6707,-1.6712,-1.6718,-1.6718,-1.6691,-1.6687,-1.6684,-1.6679,-1.6719,-1.6719,-1.6745,-1.6746,-1.6746]},{"header":{"parameterUnit":"m.s-1","parameterCategory":1,"la1":30.2991,"la2":30.254,"lo1":-89.0895,"lo2":-89.0444,"dy":0.0017,"dx":0.0017,"nx":28,"ny":28,"refTime":"2023-10-11T21:00:00:Z","depth":0,"parameterNumber":3,"parameterNumberName":"V-component_of_WINDS"},"data":[0,0,0,0,0,0,0,0,0,0,0,0,0,0,0,0,0,0,0,0,0,0,0,0,0,0,0,0,0,0,0,0,0,0,0,0,0,0,0,0,0,0,0,0,0,0,0,0,0,0,0,0,0,0,0,0,0,0,-4.772,-4.772,0,-4.7777,-4.7778,-4.7778,-4.776,-4.7758,-4.7757,-4.7756,-4.781,-4.7812,-4.7815,0,0,0,0,0,0,0,0,0,0,0,0,0,-4.7589,-4.7592,-4.772,-4.772,-4.7721,-4.7777,-4.7778,-4.7779,-4.776,-4.7758,-4.7757,-4.7755,-4.7809,-4.7812,-4.7815,0,0,0,0,0,0,0,0,0,0,0,0,0,-4.7646,-4.7593,-4.7719,-4.7719,-4.7719,-4.7777,-4.7778,-4.7779,-4.776,-4.7758,-4.7756,-4.7755,-4.7808,-4.7812,-4.7815,-4.7876,0,0,-4.7827,-4.7829,0,0,0,0,0,0,0,0,-4.7643,-4.7651,-4.7718,-4.7719,-4.7719,-4.7759,-4.7752,-4.7811,-4.7761,-4.7744,-4.7756,-4.7754,-4.7794,-4.7799,-4.7814,-4.7879,-4.7881,-4.7828,-4.783,-4.7832,-4.7833,0,0,0,0,0,0,0,-4.7639,-4.7648,-4.7742,-4.7719,-4.772,-4.7714,-4.772,-4.7763,-4.7779,-4.7746,-4.7744,-4.7752,-4.7794,-4.781,-4.7815,-4.7882,-4.7828,-4.7831,-4.7833,-4.7835,-4.8,-4.8002,0,0,0,0,0,0,-4.7635,-4.7645,-4.774,-4.7744,-4.7676,-4.7718,-4.7725,-4.7748,-4.7778,-4.7781,-4.7753,-4.7751,-4.7804,-4.781,-4.7817,-4.7891,-4.7832,-4.7835,-4.7837,-4.7998,-4.8001,-4.8003,0,0,0,0,0,0,-4.7633,-4.7644,-4.7738,-4.7694,-4.7706,-4.7722,-4.7749,-4.775,-4.7766,-4.7784,-4.7786,-4.7767,-4.7803,-4.7811,-4.7862,-4.7892,-4.7837,-4.784,-4.7996,-4.7999,-4.8002,-4.8038,0,0,0,0,0,0,-4.7629,-4.7643,-4.7667,-4.7695,-4.7708,-4.7784,-4.7751,-4.7753,-4.7774,-4.7771,-4.7797,-4.78,-4.7802,-4.7856,-4.7866,-4.7896,-4.7843,-4.7993,-4.7997,-4.8001,-4.8035,-4.8042,-4.8049,0,0,0,0,0,-4.7624,-4.7674,-4.7669,-4.768,-4.7739,-4.7786,-4.7793,-4.7796,-4.7776,-4.78,-4.7812,-4.7799,-4.7887,-4.7862,-4.7872,-4.7904,-4.7991,-4.7996,-4.8001,-4.8031,-4.8041,-4.8049,0,0,0,0,0,0,-4.7647,-4.7677,-4.7672,-4.7732,-4.7757,-4.7782,-4.7812,-4.7806,-4.7835,-4.7831,-4.7832,-4.7838,-4.7891,-4.7903,-4.7874,-4.7965,-4.7936,-4.7943,-4.7956,-4.7965,-4.7972,-4.7968,-4.7847,0,0,0,0,0,-4.7659,-4.7696,-4.772,-4.777,-4.7783,-4.7796,-4.7816,-4.7817,-4.7842,-4.7851,-4.7867,-4.789,-4.7923,-4.7945,-4.7976,-4.8036,-4.8042,-4.8063,-4.8071,-4.8077,-4.8083,-4.8116,-4.8126,-4.8019,-4.8019,-4.8018,0,0,-4.7684,-4.7705,-4.7728,-4.7776,-4.7795,-4.7832,-4.7805,-4.7845,-4.7872,-4.7857,-4.7907,-4.7919,-4.7945,-4.8001,-4.8027,-4.8012,-4.8114,-4.8083,-4.8087,-4.809,-4.8122,-4.8132,-4.8141,-4.8022,-4.8021,-4.8021,0,0,-4.7749,-4.7768,-4.7814,-4.7834,-4.7864,-4.7873,-4.7884,-4.7911,-4.7919,-4.797,-4.7959,-4.7991,-4.8048,-4.8067,-4.8084,-4.8159,-4.8148,-4.8168,-4.8206,-4.8239,-4.8247,-4.8255,-4.8282,-4.8291,-4.8174,-4.8174,-4.8175,0,-4.7775,-4.7832,-4.7837,-4.7879,-4.79,-4.7891,-4.7936,-4.7955,-4.7993,-4.8007,-4.7991,-4.8064,-4.808,-4.8141,-4.816,-4.8174,-4.8186,-4.8165,-4.8246,-4.8254,-4.8261,-4.8286,-4.8296,-4.8177,-4.8177,-4.8176,-4.8176,0,-4.7864,-4.7904,-4.7936,-4.7976,-4.8001,-4.8044,-4.8054,-4.8079,-4.8078,-4.8087,-4.8139,-4.8159,-4.8195,-4.8209,-4.8207,-4.8271,-4.8261,-4.8246,-4.8216,-4.8273,-4.8297,-4.8307,-4.818,-4.8179,-4.8179,-4.8178,0,0,-4.7943,-4.7987,-4.7999,-4.8017,-4.8051,-4.8081,-4.8123,-4.8161,-4.8182,-4.8208,-4.8244,-4.8293,-4.828,-4.83,-4.83,-4.8329,-4.8387,-4.831,-4.831,-4.8324,-4.8459,-4.847,-4.8482,-4.8381,-4.8382,-4.8384,-4.8457,0,-4.8011,-4.8089,-4.8095,-4.8164,-4.8201,-4.8193,-4.823,-4.8254,-4.8265,-4.8296,-4.8307,-4.8343,-4.8322,-4.8334,-4.8362,-4.8374,-4.8414,-4.8369,-4.8413,-4.8414,-4.8407,-4.8494,-4.8506,-4.8574,-4.8466,-4.8467,-4.8469,0,-4.81,-4.8133,-4.8207,-4.8237,-4.8252,-4.8286,-4.8321,-4.8352,-4.8379,-4.8384,-4.8408,-4.8404,-4.8447,-4.8417,-4.8476,-4.8445,-4.8464,-4.8472,-4.8475,-4.8479,-4.8445,-4.8501,-4.8595,-4.8605,-4.8483,-4.8482,-4.8481,0,-4.8152,-4.8213,-4.8266,-4.8282,-4.8318,-4.8342,-4.8357,-4.8383,-4.8405,-4.8435,-4.845,-4.8484,-4.8502,-4.8528,-4.8534,-4.8512,-4.8593,-4.8563,-4.8599,-4.8599,-4.8616,-4.8615,-4.8715,-4.8628,-4.8628,-4.8627,-4.8627,0,-4.8227,-4.8272,-4.829,-4.8322,-4.8373,-4.8379,-4.8428,-4.8442,-4.8465,-4.8499,-4.8494,-4.8525,-4.8531,-4.8564,-4.8568,-4.8617,-4.8625,-4.863,-4.8631,-4.8631,-4.863,-4.8643,-4.8638,-4.863,-4.863,-4.8629,-4.8629,0,-4.8293,-4.8306,-4.8363,-4.8393,-4.8402,-4.8438,-4.8463,-4.8494,-4.8504,-4.8548,-4.8558,-4.8574,-4.8612,-4.8621,-4.8665,-4.8668,-4.8726,-4.8722,-4.8718,-4.8718,-4.8753,-4.875,-4.8865,-4.888,-4.8782,-4.8783,-4.8784,0,-4.834,-4.8375,-4.841,-4.8434,-4.8452,-4.8489,-4.8513,-4.852,-4.8545,-4.8579,-4.8606,-4.8644,-4.8675,-4.8736,-4.8751,-4.8785,-4.8782,-4.882,-4.8787,-4.8786,-4.8783,-4.8781,-4.8785,-4.8826,-4.8827,-4.8828,-4.8829,0,-4.8423,-4.8428,-4.8464,-4.8502,-4.8531,-4.8561,-4.8589,-4.8608,-4.862,-4.8647,-4.8688,-4.8712,-4.8759,-4.8797,-4.8832,-4.8847,-4.884,-4.8839,-4.8849,-4.885,-4.8846,-4.8849,-4.8736,-4.8836,-4.8836,-4.8835,-4.8835,-4.8834,-4.8481,-4.8513,-4.8543,-4.8583,-4.8606,-4.8633,-4.8664,-4.8679,-4.8714,-4.8754,-4.8756,-4.88,-4.8827,-4.8873,-4.889,-4.8924,-4.8912,-4.8926,-4.893,-4.8934,-4.8937,-4.8841,-4.893,-4.893,-4.893,-4.893,-4.8929,0,-4.8564,-4.8584,-4.8621,-4.8662,-4.8694,-4.8687,-4.8718,-4.8744,-4.8784,-4.881,-4.8842,-4.8889,-4.8926,-4.8944,-4.8981,-4.9004,-4.9002,-4.9013,-4.9012,-4.9015,-4.8946,-4.8934,-4.9015,-4.9015,-4.9015,-4.9015,-4.9015,-4.9015,-4.8611,-4.8665,-4.8674,-4.8739,-4.8757,-4.8803,-4.8821,-4.8846,-4.8868,-4.8921,-4.8953,-4.8965,-4.8988,-4.9027,-4.906,-4.9065,-4.9078,-4.9092,-4.9094,-4.9029,-4.902,-4.9012,-4.9001,-4.9095,-4.9095,-4.9161,-4.9162,-4.9163]}]]